Regional Weather Roundup
Issued by NWS

Home | Current Version | Previous Version | Graphics & Text | Print | Product List | Glossary Off
Versions: 1 2 3 4 5 6 7 8 9 10 11 12 13 14 15 16 17 18 19 20 21 22 23 24 25 26 27 28 29 30 31 32 33 34 35 36 37 38 39 40 41 42 43 44 45 46 47 48 49 50

000
ASUS43 KMKX 280521
RWRWI

WISCONSIN REGIONAL WEATHER ROUNDUP
NATIONAL WEATHER SERVICE MILWAUKEE/SULLIVAN WI
1200 AM CDT SAT MAY 28 2016

NOTE: "FAIR" INDICATES FEW OR NO CLOUDS BELOW 12,000 FEET WITH NO
SIGNIFICANT WEATHER AND/OR OBSTRUCTIONS TO VISIBILITY.

WIZ001-002-006>008-014>016-023>028-280600-
NORTHWEST WISCONSIN

CITY           SKY/WX    TMP DP  RH WIND       PRES   REMARKS
SUPERIOR ARPT  CLOUDY    46  46 100 NE10G20   29.81F
ASHLAND        FOG       46  45  96 N6        29.80S VSB 1/2
HAYWARD        CLOUDY    56  54  93 CALM      29.76F
SIREN          CLOUDY    57  55  92 NE5       29.77F
CUMBERLAND     CLOUDY    57  55  94 CALM      29.77S
RICE LAKE      CLOUDY    59  58  94 CALM      29.79R
CHETEK         CLOUDY    61  61 100 CALM      29.77S FOG
LADYSMITH      CLOUDY    66  65  95 SE5       29.78S
EAU CLAIRE     CLOUDY    64  63  96 CALM      29.75S
MENOMONIE      CLOUDY    63  63  99 CALM      29.77R FOG
NEW RICHMOND   CLOUDY    63  62  97 CALM      29.77R
OSCEOLA        CLOUDY    63  63 100 CALM      29.80R
$$

WIZ003>005-009-010-017-018-280600-
NORTH CENTRAL WISCONSIN

CITY           SKY/WX    TMP DP  RH WIND       PRES   REMARKS
MANITOWISH WTR NOT AVBL
ARBOR VITAE    CLOUDY    66  63  90 SE8       29.79F
WOODRUFF       CLOUDY    66  63  90 SE8       29.79F
RHINELANDER    CLOUDY    65  62  90 SE8       29.81F
EAGLE RIVER      N/A     65  63  93 SE7       29.81F
LAND O LAKES   CLOUDY    65  63  94 SE8       29.82F
PHILLIPS       CLOUDY    65  63  92 SE8       29.78R
TOMAHAWK       CLOUDY    64  63  94 SE5       29.80S
MEDFORD        CLOUDY    65  65 100 SE7       29.79R
MERRILL        CLOUDY   N/A N/A N/A SE6       29.80S
$$

WIZ029-030-035-036-043>047-280600-
CENTRAL WISCONSIN

CITY           SKY/WX    TMP DP  RH WIND       PRES   REMARKS
WAUSAU         LGT RAIN  68  65  90 SE10      29.78S
MOSINEE        DRIZZLE   64  64 100 SE7       29.80S
MARSHFIELD     CLOUDY    68  65  90 S9        29.78S
STEVENS POINT  DRIZZLE   65  65  98 S5        29.81R
WAUPACA        CLOUDY    69  69  99 SE5       29.81S
WAUTOMA        MOCLDY    66  66 100 CALM      29.80F FOG
WISC RAPIDS    CLOUDY    68  65  90 SE7       29.79F
CAMP DOUGLAS   MOCLDY    66 N/A N/A SE3       29.77S
$$

WIZ011>013-019>022-031-037>040-048>050-280600-
NORTHEAST WISCONSIN

CITY           SKY/WX    TMP DP  RH WIND       PRES   REMARKS
ANTIGO         CLOUDY    64  64 100 SE9       29.83S FOG
SHAWANO        CLOUDY    67  65  94 SE3       29.83S FOG
OCONTO         CLOUDY   N/A N/A N/A SE3       29.83F
STURGEON BAY   NOT AVBL
GREEN BAY      NOT AVBL
MANITOWOC      FOG       59  57  94 SE7       29.85S VSB 3/4
APPLETON       MOCLDY    66  66 100 SE7       29.81S FOG
CLINTONVILLE   CLOUDY    64  64 100 SE5       29.81S FOG
OSHKOSH        PTCLDY    67  65  93 S7        29.81S FOG
$$

WIZ032>034-041-042-053>061-280600-
SOUTHWEST WISCONSIN

CITY           SKY/WX    TMP DP  RH WIND       PRES   REMARKS
LA CROSSE      MOCLDY    68  66  93 SE7       29.75S
SPARTA         CLOUDY    65  64  96 CALM      29.77S
VIROQUA        MOCLDY    65  65  97 SE3       29.78S
BOSCOBEL       CLOUDY    66  64  93 NE3       29.76F
PRAIRIE DU CHI CLOUDY    66  64  91 CALM      29.75S
PLATTEVILLE    MOCLDY    70  68  93 SE6       29.78F
$$

WIZ056-057-062-063-064-067-068-280600-
SOUTH CENTRAL WISCONSIN

CITY           SKY/WX    TMP DP  RH WIND       PRES   REMARKS
REEDSBURG      CLOUDY    68  67  96 SE3       29.78F
BARABOO/DELLS  CLOUDY    69  65  88 S6        29.79F
LONE ROCK      CLOUDY    70  66  87 SE5       29.78S
MINERAL POINT  CLOUDY    70  68  94 SE6       29.80S
MADISON        PTCLDY    71  66  84 S9        29.79F
MIDDLETON      PTCLDY    73  67  81 S9        29.80F
WATERTOWN      MOCLDY    69  69 100 SE5       29.82S
MONROE         CLOUDY    70  64  83 S12       29.81R
JANESVILLE     CLOUDY    72  64  78 S14       29.81S
$$

WIZ051-052-058>065-066-070>072-280600-
SOUTHEAST WISCONSIN

CITY           SKY/WX    TMP DP  RH WIND       PRES   REMARKS
MILWAUKEE      LGT RAIN  70  65  84 S13       29.84S
WAUKESHA       CLOUDY    68  64  88 S8        29.85S
MILWAUKEE/TIMM CLOUDY    70  63  78 S9G16     29.84S
RACINE         LGT RAIN  67  63  87 S9        29.88R
BURLINGTON     CLOUDY    68  64  88 S7        29.84S FOG
KENOSHA        LGT RAIN  70  65  84 S10       29.86S
FOND DU LAC    MOCLDY    69  67  93 S12       29.82S
SHEBOYGAN      PTCLDY    63  61  93 S6        29.84F FOG
WEST BEND      MOCLDY    64  64 100 CALM      29.84S FOG
JUNEAU         MOCLDY    67  66  96 SE9       29.83S
$$

LSZ147-162-280600-
LAKE SUPERIOR

STATION/POSITION TIME  TEMP    WIND        PRES    WAVE
                       AIR SEA DIR/SP/G            HT/PER
                 (UTC) (F)     (DEG/KT/KT) (MB)    (FT/S)
W MID LAKE BUOY  0450   41 38   40/ 17/ 21 1010.0F   3/ 4
DEVILS ISLAND    0500   44      60/ 21/ 24 1009.4F
SAXON HARBOR     0400   46     100/  1/  2 1008.5
$$

LMZ867-665-643>646-280600-
LAKE MICHIGAN

STATION/POSITION TIME  TEMP    WIND        PRES    WAVE
                       AIR SEA DIR/SP/G            HT/PER
                 (UTC) (F)     (DEG/KT/KT) (MB)    (FT/S)
CHAMBERS ISLAND  0400   60      80/  7/ 10 1010.8F
N MID LAKE BUOY  0450   54 47  130/ 10/ 12 1011.4F   1
NORTHPORT PIER   0400   55     130/  3/  6 1011.2F
SISTER BAY       0320   59     120/  6/ 10   N/A
ALGOMA LAKESHORE 0417             CALM       N/A
KEWAUNEE LAKESHO 0400   54     140/  2/  4 1010.2F
SHEBOYGAN LAKESH 0500   56     170/ 15/ 16 1010.8F
PORT WASHINGTON  0400   59     170/  4/  6 1011.5S
S MID LAKE BUOY  0450   56 50  150/ 10/ 12 1011.7F   1/ 3
KENOSHA   LAKESH 0500   58     180/ 14/ 19 1011.2S
$$

TC  - TEMPERATURE IN CELSIUS
VSB - VISIBILITY IN STATUTE MILES
WCI - WIND CHILL INDEX
HX  - HEAT INDEX





USA.gov is the U.S. government's official web portal to all federal, state and local government web resources and services.